Weather History for El Centro, CA

Change the Weather History Date:

Friday, March 29, 2013

  Actual Average Record
Temperature  
Mean Temperature 70 °F -  
Max Temperature 87 °F 77 °F 91 °F (2004)
Min Temperature 54 °F 53 °F 32 °F (2012)
Cooling Degree Days 6    
Growing Degree Days 20 (Base 50)    
Moisture  
Dew Point 45 °F    
Average Humidity 40    
Maximum Humidity 75    
Minimum Humidity 18    
Precipitation  
Precipitation 0.00 in - - ()
Sea Level Pressure  
Sea Level Pressure 30.02 in    
Wind  
Wind Speed 5 mph (SE)    
Max Wind Speed 7 mph    
Max Gust Speed -    
Visibility 10 miles    
Events      
Averages and records for this station are not official NWS values.
T = Trace of Precipitation, MM = Missing Value Source: NWS Daily Summary

Daily Weather History Graph

Daily Weather History Graph

Search for Another Location

Airport:

Trip Planner

Search our weather history database for the weather conditions in past years. The results will help you decide how hot, cold, wet, or windy it might be!

Date:

Astronomy

Mar. 29, 2013 Rise Set
Actual Time 6:34 AM PDT 7:00 PM PDT
Civil Twilight 6:09 AM PDT 7:25 PM PDT
Nautical Twilight 5:40 AM PDT 7:54 PM PDT
Astronomical Twilight 5:10 AM PDT 8:24 PM PDT
Moon 9:54 PM PDT (3/29) 7:55 AM PDT (3/29)
Length of Visible Light 13h 16m
Length of Day
12h 26m
Waning Gibbous, 93% of the Moon is Illuminated
Mar 29
Waning Gibbous
Apr 2
Last Quarter
Apr 10
New
Apr 18
First Quarter
Apr 25
Full

Hourly Weather History & Observations

Time (PDT) Temp. Dew Point Humidity Pressure Visibility Wind Dir Wind Speed Gust Speed Precip Events Conditions
12:56 AM 66.0 °F 39.0 °F 37% 29.99 in 10.0 mi West 6.9 mph - N/A   Clear
1:56 AM 64.9 °F 39.0 °F 39% 30.00 in 10.0 mi West 5.8 mph - N/A   Clear
2:56 AM 59.0 °F 39.9 °F 49% 30.00 in 10.0 mi NE 3.5 mph - N/A   Clear
3:56 AM 60.1 °F 42.1 °F 51% 30.01 in 10.0 mi South 4.6 mph - N/A   Clear
4:56 AM 57.9 °F 43.0 °F 58% 30.01 in 10.0 mi South 4.6 mph - N/A   Clear
5:56 AM 57.0 °F 46.0 °F 67% 30.03 in 9.0 mi Calm Calm - N/A   Clear
6:56 AM 54.0 °F 45.0 °F 72% 30.04 in 7.0 mi Calm Calm - N/A   Clear
7:56 AM 60.1 °F 52.0 °F 75% 30.07 in 10.0 mi East 3.5 mph - N/A   Clear
8:56 AM 69.1 °F 51.1 °F 53% 30.09 in 10.0 mi Calm Calm - N/A   Clear
9:56 AM 75.0 °F 48.9 °F 40% 30.09 in 10.0 mi North 5.8 mph - N/A   Clear
10:56 AM 79.0 °F 48.0 °F 34% 30.09 in 10.0 mi Variable 3.5 mph - N/A   Partly Cloudy
11:56 AM 81.0 °F 50.0 °F 34% 30.08 in 10.0 mi NNE 5.8 mph - N/A   Partly Cloudy
12:56 PM 82.9 °F 50.0 °F 32% 30.06 in 10.0 mi Variable 6.9 mph - N/A   Clear
1:56 PM 86.0 °F 45.0 °F 24% 30.04 in 10.0 mi East 4.6 mph - N/A   Mostly Cloudy
2:56 PM 86.0 °F 41.0 °F 20% 30.01 in 10.0 mi Variable 5.8 mph - N/A   Mostly Cloudy
3:56 PM 87.1 °F 39.0 °F 18% 29.99 in 10.0 mi SSE 4.6 mph - N/A   Mostly Cloudy
4:56 PM 87.1 °F 42.1 °F 21% 29.98 in 10.0 mi East 4.6 mph - N/A   Mostly Cloudy
5:56 PM 86.0 °F 42.1 °F 21% 29.98 in 10.0 mi East 4.6 mph - N/A   Clear
6:56 PM 79.0 °F 50.0 °F 36% 29.98 in 10.0 mi ESE 5.8 mph - N/A   Clear
7:56 PM 77.0 °F 43.0 °F 30% 29.99 in 10.0 mi SE 6.9 mph - N/A   Clear
8:56 PM 75.0 °F 44.1 °F 33% 30.00 in 10.0 mi SSE 4.6 mph - N/A   Clear
9:56 PM 73.9 °F 45.0 °F 35% 30.02 in 10.0 mi SSW 5.8 mph - N/A   Clear
10:56 PM 73.9 °F 46.9 °F 38% 30.03 in 10.0 mi WSW 6.9 mph - N/A   Clear
11:56 PM 73.9 °F 45.0 °F 35% 30.01 in 10.0 mi West 6.9 mph - N/A   Clear